User: anonymous
Location: Stigler
(35.2540°N, 95.1230°W)
Time: 13:18:41
(UTC-05:00)
Language:

Cosmos 1805 - Orbit

View from above orbital plane
View from above orbital plane
View from above satellite
View from above satellite

Ground track
Ground track

The orbit data is extracted from the following two-line orbital elements,

1 17191U 86097A   14273.42707317  .00004747  00000-0  30800-3 0    28
2 17191 082.4944 282.9100 0006963 198.9293 161.1678 15.07847847514088
Epoch (UTC): 30 September 2014 10:14:59
Eccentricity: 0.0006963
inclination: 82.4944°
perigee height: 538 km
apogee height: 547 km
right ascension of ascending node: 282.9100°
argument of perigee: 198.9293°
revolutions per day: 15.07847847
mean anomaly at epoch: 161.1678°
orbit number at epoch: 51408

The dashed part of the orbit path shows where the satellite is in the earth's shadow,  

DLR